Temp
66 66 66 67 67 68 70 72 72 73 73 74 74 74 74 73 73 72 72 72 71 68 65 65 66 68 75 72 75 75 75 75 74 75 75 75 75 74 74 74 74 74 74 74 74 74 74 74 74 75 76 76 76 69 69 69 70 70 69 70 71 70
65 65 65 67 68 68 68 70 67 67 68 69 71 72 69 70 72 67 71 68 67 68 66 65 66 72 69 71 72 76 75 75 74 74 75 75 75 75 75 74 74 74 74 74 75 69 68 71 73 75 75 75 70 68 68 68 68 69 70 70 70 71
64 64 65 66 67 68 67 66 66 67 69 71 71 70 67 69 66 66 67 66 68 66 67 67 68 71 71 73 72 76 76 76 75 74 74 74 74 75 75 75 75 75 74 75 71 66 66 67 66 72 71 69 67 67 68 67 67 67 67 69 70 74
65 64 64 65 65 65 65 65 65 65 66 67 66 68 67 67 66 66 66 66 66 68 68 65 72 73 73 69 69 72 75 76 76 75 75 74 74 74 74 74 74 74 73 70 67 67 67 66 66 66 66 67 67 67 67 67 66 66 66 69 71 75
64 64 64 64 66 65 65 65 66 66 65 66 66 66 65 65 65 65 65 65 66 67 65 65 65 65 65 66 66 66 68 69 69 68 73 68 67 69 69 67 68 69 67 68 67 66 66 65 67 67 66 67 67 66 67 67 66 67 67 66 69 74
64 64 64 64 65 67 67 64 65 67 66 65 65 65 65 64 65 65 65 67 68 65 65 65 64 64 64 64 65 65 66 66 66 68 70 67 67 67 66 67 68 68 68 67 66 66 68 70 67 66 66 67 67 66 66 66 66 67 67 66 67 73
63 64 64 65 65 65 65 65 65 66 66 65 65 65 65 64 65 65 65 66 65 64 64 64 64 65 65 65 65 65 65 66 66 66 68 67 66 66 65 66 66 67 67 67 67 67 67 68 67 67 67 67 67 66 66 66 65 66 66 66 68 72
64 64 63 64 64 64 64 65 66 69 66 68 67 65 65 65 66 64 66 65 68 64 64 64 66 65 66 66 66 65 65 66 66 66 67 67 65 65 65 65 65 66 67 67 67 68 68 67 66 67 66 66 66 65 66 66 65 65 65 66 67 70
64 65 63 64 65 64 64 64 65 66 66 70 66 66 66 67 65 65 66 66 67 65 64 65 66 67 66 67 66 65 66 66 66 65 66 66 65 65 65 65 65 66 65 67 66 66 67 68 66 66 66 65 66 65 65 66 65 65 66 66 66 69
65 64 65 64 65 64 64 65 65 66 66 70 66 67 68 66 65 66 67 69 68 68 66 66 66 66 66 67 66 67 65 66 66 65 65 66 66 65 65 65 65 66 67 66 67 66 69 66 66 67 65 66 65 65 65 65 64 65 66 65 66 69
65 69 65 65 66 66 66 65 66 66 66 67 67 68 66 65 64 65 69 69 69 69 69 67 67 68 68 67 66 67 68 66 65 65 66 66 66 66 65 65 65 65 66 66 67 67 68 66 65 66 66 65 65 64 65 65 66 65 66 65 65 67
65 66 67 66 66 64 65 66 67 65 65 66 68 66 66 66 68 65 67 68 68 68 70 67 67 68 68 66 66 66 67 68 67 67 66 66 66 67 66 67 67 67 67 66 66 67 67 66 65 65 65 65 64 64 64 65 66 65 66 65 65 67
64 64 65 65 65 65 63 64 64 65 65 67 65 66 65 67 66 67 68 68 68 69 68 67 67 67 67 65 65 66 67 67 67 67 68 68 68 66 65 65 66 67 66 66 66 67 69 65 64 64 64 65 65 65 66 65 64 65 66 67 67 65
65 65 67 64 66 64 64 64 65 63 66 65 64 65 66 65 66 67 67 67 68 70 69 67 67 67 66 65 66 66 66 66 66 67 67 67 65 65 67 66 67 66 69 69 66 66 65 64 65 64 64 64 65 65 65 65 65 66 67 67 67 65
66 62 64 63 64 64 65 64 64 64 65 65 68 66 65 66 65 65 66 66 68 69 68 68 68 66 66 65 65 66 67 65 67 67 67 66 65 66 66 66 65 67 67 65 67 70 66 65 65 65 65 65 64 65 65 65 65 66 66 65 66 66
63 64 64 64 64 63 65 64 65 70 68 65 66 68 65 67 66 65 65 67 67 68 67 67 67 67 66 65 65 66 65 66 66 66 66 66 66 66 66 66 66 65 65 67 68 68 65 65 65 65 65 64 64 65 64 64 64 65 66 66 66 66
65 64 63 63 63 64 64 65 66 66 66 65 66 65 64 66 66 65 65 65 66 68 66 66 67 66 65 66 65 66 65 66 66 65 64 64 65 65 64 66 65 66 63 63 66 67 65 65 65 64 64 64 65 65 64 64 63 65 66 66 66 65
64 63 63 63 65 65 66 67 67 65 68 66 65 65 64 64 64 64 65 65 66 67 67 65 65 66 65 67 65 65 66 66 65 65 64 64 64 65 65 63 64 66 65 64 63 65 65 65 67 65 64 64 64 64 64 64 66 67 64 64 65 65
64 64 64 64 65 66 66 66 65 65 65 65 64 64 64 64 64 65 64 65 66 66 67 65 65 65 66 65 65 65 65 65 65 64 64 64 64 65 65 64 64 65 66 66 63 64 64 64 65 66 64 64 64 63 64 65 64 64 64 65 66 67
63 63 64 64 65 64 64 64 64 64 64 64 64 66 65 64 64 65 67 65 65 65 65 66 65 64 64 66 64 63 64 65 65 64 63 63 63 62 63 64 63 65 64 65 66 65 65 64 64 64 64 63 63 63 64 64 64 64 63 63 63 64
64 63 64 65 63 63 63 63 63 63 63 61 65 65 64 63 64 65 64 65 64 66 64 64 67 63 64 66 64 63 64 64 64 65 64 63 62 64 64 63 62 62 63 63 64 63 63 64 63 61 61 61 61 62 63 63 62 63 63 62 63 63
64 64 63 63 63 64 63 64 64 63 63 63 64 63 65 64 66 66 64 65 65 64 63 64 65 65 64 63 64 63 63 62 62 64 63 63 64 65 63 63 62 61 61 61 62 64 64 62 60 59 58 58 60 61 62 62 62 63 63 62 62 63
64 64 63 64 66 64 62 64 63 62 62 64 64 63 63 65 66 64 63 63 64 63 63 64 64 65 66 63 62 62 63 61 62 64 62 62 61 62 61 61 61 60 60 61 62 65 63 61 57 57 58 58 55 54 59 60 62 62 62 62 63 62
64 63 64 64 68 66 65 66 65 63 62 63 66 66 64 63 63 64 64 63 63 64 63 63 63 64 62 62 61 62 62 62 61 61 60 60 60 61 60 62 61 62 59 59 60 61 64 62 59 58 55 53 53 56 54 56 56 58 61 63 63 63
64 64 63 65 65 64 64 62 63 63 61 61 62 60 60 61 61 64 66 64 64 64 65 63 63 63 66 63 61 61 61 61 61 61 61 60 60 61 60 59 60 61 60 58 59 58 61 63 61 62 56 56 53 53 55 57 57 56 60 61 62 63
63 63 64 64 64 63 64 62 61 61 60 59 60 58 62 61 61 62 62 62 63 63 65 64 63 64 64 65 61 61 61 61 62 63 62 60 60 60 60 60 60 59 60 59 59 58 58 63 62 62 59 57 55 53 55 57 55 52 59 60 61 62
63 63 64 64 65 66 62 62 64 63 62 62 61 59 58 60 61 60 61 63 63 62 64 65 65 62 62 63 61 61 60 60 61 61 64 59 60 59 60 61 61 60 59 60 59 58 58 59 59 59 61 60 61 60 61 57 52 54 53 58 59 59
63 65 63 64 66 64 66 64 64 62 63 62 61 62 61 61 61 61 62 63 62 63 63 63 64 62 62 63 64 62 61 60 61 62 64 61 60 60 60 61 61 59 60 59 59 58 58 58 57 58 61 60 60 62 60 58 59 56 54 53 55 60
63 62 63 63 66 63 65 65 63 63 62 63 62 63 63 64 63 62 64 61 61 62 63 62 64 62 61 62 64 62 60 60 61 62 62 61 60 61 61 59 58 59 58 59 59 60 57 58 57 56 56 58 58 57 58 57 59 56 53 52 54 56
64 62 63 64 64 64 63 64 63 62 62 61 60 60 61 61 61 61 63 60 59 61 61 63 62 62 61 62 61 62 61 61 60 63 63 60 60 59 60 59 59 59 58 58 58 58 59 57 58 58 58 57 56 56 56 56 56 54 56 55 53 54
62 61 62 63 64 64 62 64 64 63 62 62 62 61 60 62 61 61 61 61 60 61 60 61 61 62 61 62 61 63 61 63 62 63 61 59 60 60 59 59 59 58 57 57 58 58 58 58 58 58 57 57 56 57 55 54 55 55 54 51 53 54
62 62 62 62 62 63 62 62 62 62 62 62 62 63 62 62 62 62 62 61 61 60 60 60 59 60 63 63 62 59 61 59 60 59 61 59 59 59 58 59 59 59 57 56 58 59 57 57 57 57 57 57 57 56 56 55 57 57 56 54 55 53
63 63 63 62 63 63 62 63 63 63 63 63 62 62 61 61 61 60 61 61 60 61 60 61 60 60 61 61 61 61 61 62 61 59 60 60 59 58 57 58 59 58 57 58 58 59 59 56 56 58 59 57 56 57 57 56 57 56 54 56 55 51
64 63 63 63 64 63 64 64 63 61 61 62 60 61 61 61 61 61 61 61 61 61 62 62 61 60 62 60 60 60 61 59 60 59 60 59 59 60 57 57 57 58 59 57 56 58 59 58 57 57 57 57 58 56 56 57 56 56 56 56 53 54
63 64 64 64 64 64 64 63 61 62 62 63 60 60 60 62 61 61 61 61 62 62 62 63 61 61 61 61 60 60 59 59 60 58 60 59 60 58 58 57 58 58 57 57 57 58 59 58 59 56 57 56 57 56 56 56 56 57 58 58 56 55
64 64 64 65 65 65 65 62 61 62 63 63 63 62 62 62 61 62 61 61 62 62 62 62 60 61 61 61 60 60 60 59 59 59 59 58 57 57 57 56 56 56 57 60 58 57 57 56 58 57 57 56 57 56 56 56 57 57 56 57 57 56
63 63 63 64 63 64 64 63 60 61 61 62 62 62 61 61 61 62 61 61 61 62 62 60 60 61 61 60 59 59 60 60 59 58 57 58 57 55 55 57 56 56 56 55 57 57 55 56 59 57 56 58 56 55 55 56 57 57 57 56 57 55
MSLP
1018.53 1018.41 1018.37 1018.33 1018.25 1018.21 1018.21 1018.33 1018.33 1018.21 1018.13 1018.01 1017.93 1017.89 1017.77 1017.65 1017.61 1017.61 1017.53 1017.49 1017.49 1017.49 1017.49 1017.45 1017.33 1017.25 1017.09 1017.09 1017.01 1016.93 1016.89 1016.85 1016.81 1016.73 1016.73 1016.69 1016.69 1016.69 1016.73 1016.73 1016.69 1016.65 1016.65 1016.65 1016.69 1016.69 1016.73 1016.73 1016.73 1016.73 1016.69 1016.65 1016.73 1016.89 1017.01 1016.89 1016.73 1016.61 1016.45 1016.33 1016.29 1016.45
1018.73 1018.57 1018.53 1018.45 1018.41 1018.41 1018.53 1018.49 1018.49 1018.45 1018.37 1018.25 1018.09 1017.97 1017.89 1017.81 1017.73 1017.73 1017.61 1017.61 1017.61 1017.57 1017.57 1017.53 1017.45 1017.33 1017.25 1017.13 1017.05 1016.93 1016.89 1016.85 1016.81 1016.77 1016.73 1016.69 1016.69 1016.73 1016.73 1016.69 1016.65 1016.61 1016.61 1016.61 1016.65 1016.69 1016.77 1016.77 1016.77 1016.73 1016.73 1016.73 1016.85 1017.05 1016.81 1016.61 1016.49 1016.49 1016.29 1016.29 1016.25 1016.29
1018.89 1018.77 1018.69 1018.65 1018.61 1018.61 1018.77 1018.77 1018.65 1018.57 1018.45 1018.33 1018.17 1018.01 1017.97 1017.93 1017.93 1017.89 1017.85 1017.85 1017.81 1017.77 1017.65 1017.61 1017.49 1017.25 1017.17 1017.05 1017.01 1016.93 1016.89 1016.85 1016.81 1016.77 1016.73 1016.73 1016.77 1016.81 1016.77 1016.69 1016.65 1016.65 1016.65 1016.61 1016.65 1016.77 1016.77 1016.77 1016.81 1016.85 1016.85 1016.89 1016.97 1016.69 1016.45 1016.41 1016.49 1016.25 1016.29 1016.33 1016.29 1016.29
1019.05 1018.97 1018.93 1018.89 1018.81 1018.81 1018.97 1018.93 1018.77 1018.65 1018.65 1018.53 1018.37 1018.25 1018.17 1018.17 1018.21 1018.17 1018.21 1018.13 1018.01 1017.81 1017.69 1017.61 1017.45 1017.29 1017.21 1017.25 1017.17 1017.01 1016.89 1016.81 1016.77 1016.73 1016.73 1016.77 1016.81 1016.81 1016.81 1016.73 1016.69 1016.69 1016.69 1016.73 1016.77 1016.73 1016.69 1016.73 1016.81 1016.85 1016.85 1016.85 1016.61 1016.25 1016.45 1016.53 1016.65 1016.53 1016.61 1016.49 1016.37 1016.09
1019.09 1019.09 1019.09 1019.05 1019.01 1019.09 1019.09 1019.01 1018.85 1018.77 1018.73 1018.69 1018.65 1018.57 1018.53 1018.53 1018.49 1018.37 1018.25 1018.13 1017.93 1017.77 1017.69 1017.61 1017.53 1017.45 1017.33 1017.29 1017.25 1017.17 1017.09 1017.01 1016.93 1016.93 1016.81 1016.89 1016.89 1016.93 1016.89 1016.85 1016.77 1016.69 1016.69 1016.69 1016.73 1016.73 1016.73 1016.81 1016.81 1016.81 1016.85 1016.73 1016.45 1016.45 1016.69 1016.61 1016.65 1016.49 1016.37 1016.53 1016.41 1016.29
1019.21 1019.21 1019.21 1019.21 1019.33 1019.21 1019.13 1019.17 1019.09 1018.89 1018.85 1018.85 1018.85 1018.77 1018.65 1018.65 1018.57 1018.45 1018.41 1018.21 1018.01 1017.93 1017.81 1017.69 1017.65 1017.61 1017.45 1017.29 1017.21 1017.17 1017.09 1017.09 1017.09 1017.09 1017.01 1017.09 1017.01 1016.97 1016.93 1016.85 1016.77 1016.73 1016.65 1016.53 1016.53 1016.57 1016.61 1016.65 1016.77 1016.85 1016.85 1016.73 1016.77 1016.65 1016.57 1016.45 1016.45 1016.49 1016.45 1016.53 1016.53 1016.37
1019.37 1019.33 1019.41 1019.45 1019.41 1019.37 1019.37 1019.29 1019.17 1018.97 1018.97 1018.97 1018.81 1018.81 1018.73 1018.65 1018.61 1018.53 1018.53 1018.41 1018.29 1018.13 1017.93 1017.81 1017.65 1017.49 1017.37 1017.21 1017.17 1017.09 1017.09 1017.05 1017.13 1017.17 1017.09 1017.09 1017.09 1017.01 1016.93 1016.85 1016.77 1016.81 1016.69 1016.65 1016.53 1016.53 1016.57 1016.57 1016.65 1016.81 1016.77 1016.73 1016.61 1016.53 1016.49 1016.37 1016.33 1016.45 1016.53 1016.45 1016.53 1016.49
1019.57 1019.57 1019.57 1019.53 1019.53 1019.53 1019.49 1019.33 1019.21 1019.09 1019.09 1018.97 1018.81 1018.69 1018.49 1018.45 1018.45 1018.49 1018.37 1018.25 1018.13 1018.13 1018.05 1017.85 1017.69 1017.53 1017.33 1017.13 1017.13 1017.05 1017.01 1017.13 1017.17 1017.13 1017.09 1017.05 1017.17 1017.09 1017.01 1016.89 1016.89 1016.81 1016.77 1016.65 1016.65 1016.57 1016.61 1016.57 1016.61 1016.61 1016.77 1016.89 1016.69 1016.57 1016.41 1016.29 1016.37 1016.49 1016.49 1016.57 1016.57 1016.61
1019.73 1019.69 1019.69 1019.65 1019.65 1019.53 1019.53 1019.45 1019.25 1019.17 1018.97 1018.73 1018.69 1018.61 1018.49 1018.37 1018.37 1018.33 1018.25 1018.21 1018.13 1018.13 1018.05 1017.97 1017.89 1017.73 1017.45 1017.33 1017.17 1017.17 1017.13 1017.17 1017.21 1017.21 1017.17 1017.21 1017.21 1017.17 1017.09 1017.01 1016.93 1016.89 1016.77 1016.69 1016.73 1016.77 1016.69 1016.65 1016.69 1016.65 1016.69 1016.73 1016.57 1016.57 1016.57 1016.53 1016.65 1016.65 1016.65 1016.73 1016.65 1016.53
1019.81 1019.77 1019.77 1019.89 1019.85 1019.65 1019.73 1019.57 1019.41 1019.33 1019.09 1018.85 1018.81 1018.61 1018.45 1018.45 1018.41 1018.29 1018.13 1017.97 1017.97 1018.05 1018.13 1018.05 1018.01 1017.81 1017.69 1017.61 1017.37 1017.25 1017.25 1017.29 1017.33 1017.33 1017.33 1017.29 1017.17 1017.17 1017.05 1016.93 1016.89 1016.81 1016.73 1016.73 1016.69 1016.69 1016.61 1016.81 1016.89 1016.77 1016.73 1016.77 1016.73 1016.73 1016.73 1016.77 1016.81 1016.77 1016.81 1016.89 1016.85 1016.57
1019.77 1019.69 1019.73 1019.93 1020.09 1019.81 1019.57 1019.65 1019.53 1019.37 1019.21 1019.09 1018.93 1018.81 1018.77 1018.73 1018.65 1018.41 1018.17 1018.05 1018.01 1017.97 1017.97 1017.97 1017.97 1017.89 1017.77 1017.73 1017.65 1017.61 1017.49 1017.41 1017.45 1017.45 1017.45 1017.45 1017.21 1017.17 1017.05 1016.93 1016.85 1016.81 1016.81 1016.69 1016.57 1016.49 1016.53 1016.73 1016.85 1016.73 1016.65 1016.73 1016.69 1016.81 1016.81 1016.81 1016.85 1016.89 1016.89 1017.01 1016.93 1016.77
1019.89 1019.77 1019.73 1019.85 1019.89 1020.05 1019.97 1019.73 1019.57 1019.45 1019.37 1019.25 1019.13 1019.09 1019.05 1018.97 1018.89 1018.73 1018.53 1018.41 1018.33 1018.25 1018.17 1018.17 1018.13 1018.01 1018.01 1017.93 1017.89 1017.89 1017.73 1017.65 1017.65 1017.49 1017.49 1017.45 1017.37 1017.09 1017.01 1016.93 1016.85 1016.81 1016.77 1016.65 1016.57 1016.49 1016.49 1016.69 1016.81 1016.69 1016.73 1016.77 1016.81 1017.05 1017.09 1017.05 1017.09 1017.05 1017.01 1017.05 1017.05 1016.97
1019.93 1019.89 1019.85 1019.93 1019.97 1020.01 1020.01 1019.89 1019.73 1019.65 1019.53 1019.41 1019.41 1019.41 1019.41 1019.33 1019.21 1019.05 1018.85 1018.65 1018.61 1018.61 1018.53 1018.53 1018.37 1018.25 1018.17 1018.09 1018.09 1018.01 1017.93 1017.85 1017.77 1017.61 1017.45 1017.33 1017.25 1017.13 1017.05 1016.93 1016.81 1016.73 1016.65 1016.61 1016.61 1016.45 1016.57 1016.69 1016.69 1016.57 1016.65 1016.81 1016.97 1017.25 1017.25 1017.25 1017.21 1017.05 1017.09 1017.13 1017.17 1017.17
1019.97 1020.01 1019.97 1019.97 1019.97 1020.01 1020.01 1019.97 1019.89 1019.85 1019.69 1019.57 1019.53 1019.53 1019.53 1019.49 1019.29 1019.21 1019.13 1018.93 1018.85 1018.77 1018.69 1018.61 1018.57 1018.49 1018.41 1018.41 1018.37 1018.25 1018.17 1018.09 1017.85 1017.65 1017.57 1017.45 1017.41 1017.29 1017.17 1017.05 1017.01 1016.85 1016.73 1016.69 1016.73 1016.53 1016.69 1016.93 1016.81 1016.73 1016.73 1016.85 1017.09 1017.49 1017.45 1017.45 1017.33 1017.17 1017.17 1017.21 1017.29 1017.33
1020.21 1020.25 1020.13 1020.13 1020.09 1020.05 1020.01 1020.01 1019.97 1019.85 1019.69 1019.57 1019.53 1019.53 1019.53 1019.45 1019.37 1019.25 1019.25 1019.05 1019.05 1018.97 1018.89 1018.81 1018.69 1018.73 1018.69 1018.65 1018.61 1018.53 1018.37 1018.29 1018.01 1017.81 1017.73 1017.61 1017.61 1017.49 1017.45 1017.41 1017.25 1017.13 1016.97 1016.89 1016.85 1016.57 1016.65 1016.97 1017.01 1017.05 1016.89 1017.05 1017.37 1017.41 1017.41 1017.57 1017.49 1017.45 1017.45 1017.41 1017.37 1017.41
1020.29 1020.29 1020.21 1020.17 1020.09 1020.01 1019.89 1019.85 1019.85 1019.73 1019.69 1019.65 1019.61 1019.57 1019.65 1019.49 1019.41 1019.37 1019.33 1019.25 1019.21 1019.13 1019.09 1018.97 1018.85 1018.77 1018.77 1018.77 1018.81 1018.73 1018.61 1018.37 1018.17 1018.01 1017.93 1017.81 1017.69 1017.77 1017.65 1017.49 1017.41 1017.37 1017.41 1017.09 1016.97 1016.81 1016.85 1017.17 1017.13 1017.05 1017.17 1017.41 1017.65 1017.57 1017.65 1017.69 1017.73 1017.69 1017.65 1017.57 1017.61 1017.65
1020.45 1020.41 1020.33 1020.21 1020.13 1020.01 1019.93 1019.89 1019.89 1019.93 1019.89 1019.81 1019.81 1019.85 1019.81 1019.57 1019.65 1019.57 1019.45 1019.45 1019.37 1019.29 1019.21 1019.09 1018.97 1018.89 1018.89 1018.85 1018.85 1018.81 1018.69 1018.49 1018.29 1018.21 1018.13 1017.97 1017.89 1017.89 1017.89 1017.85 1017.57 1017.45 1017.49 1017.41 1017.29 1017.17 1017.33 1017.33 1017.29 1017.37 1017.49 1017.81 1017.89 1017.85 1017.89 1017.93 1017.93 1017.85 1017.77 1017.81 1017.81 1017.85
1020.45 1020.41 1020.33 1020.29 1020.17 1020.13 1020.09 1020.05 1020.05 1020.13 1020.05 1019.97 1019.97 1019.89 1019.93 1019.97 1019.97 1019.81 1019.69 1019.69 1019.53 1019.45 1019.37 1019.21 1019.09 1019.01 1018.97 1018.93 1018.89 1018.89 1018.73 1018.61 1018.49 1018.41 1018.33 1018.25 1018.13 1017.93 1017.89 1017.89 1017.81 1017.53 1017.49 1017.37 1017.53 1017.49 1017.57 1017.57 1017.65 1017.85 1018.01 1018.09 1018.13 1018.05 1018.09 1018.21 1018.13 1018.01 1018.05 1018.13 1018.13 1018.17
1020.53 1020.45 1020.45 1020.37 1020.37 1020.33 1020.29 1020.21 1020.09 1020.13 1020.09 1020.05 1020.05 1020.05 1020.01 1020.05 1020.09 1019.93 1019.89 1019.77 1019.65 1019.57 1019.49 1019.41 1019.25 1019.17 1019.13 1019.13 1019.05 1018.93 1018.85 1018.77 1018.61 1018.61 1018.57 1018.45 1018.37 1018.21 1018.09 1018.01 1018.05 1017.89 1017.57 1017.57 1017.81 1017.77 1017.73 1017.77 1018.01 1018.29 1018.45 1018.49 1018.49 1018.57 1018.53 1018.45 1018.45 1018.41 1018.37 1018.33 1018.29 1018.25
1020.57 1020.53 1020.53 1020.53 1020.53 1020.57 1020.49 1020.45 1020.45 1020.29 1020.21 1020.21 1020.33 1020.21 1020.17 1020.17 1020.09 1020.05 1019.89 1019.77 1019.73 1019.69 1019.61 1019.57 1019.49 1019.37 1019.33 1019.29 1019.29 1019.21 1019.05 1018.89 1018.81 1018.77 1018.77 1018.81 1018.73 1018.57 1018.53 1018.33 1018.21 1018.21 1018.09 1017.93 1018.05 1018.05 1017.97 1018.13 1018.45 1018.65 1018.85 1018.85 1018.81 1018.81 1018.85 1018.81 1018.73 1018.65 1018.81 1018.89 1018.77 1018.61
1020.57 1020.53 1020.61 1020.69 1020.69 1020.65 1020.65 1020.57 1020.41 1020.45 1020.57 1020.45 1020.53 1020.33 1020.37 1020.33 1020.21 1020.09 1019.97 1019.89 1019.85 1019.81 1019.73 1019.65 1019.57 1019.61 1019.53 1019.45 1019.41 1019.37 1019.29 1019.17 1019.05 1019.01 1019.01 1019.05 1018.97 1018.77 1018.65 1018.57 1018.45 1018.29 1018.33 1018.21 1018.41 1018.53 1018.45 1018.21 1018.69 1019.33 1019.21 1019.05 1019.13 1019.09 1019.01 1018.97 1019.09 1019.05 1019.09 1019.17 1018.97 1018.97
1020.65 1020.61 1020.61 1020.65 1020.65 1020.61 1020.61 1020.57 1020.61 1020.53 1020.53 1020.53 1020.41 1020.49 1020.53 1020.37 1020.21 1020.09 1020.01 1019.97 1019.89 1019.85 1019.85 1019.77 1019.69 1019.61 1019.61 1019.57 1019.57 1019.53 1019.49 1019.41 1019.37 1019.33 1019.25 1019.13 1019.01 1018.97 1018.89 1018.77 1018.73 1018.57 1018.41 1018.57 1018.61 1018.61 1018.73 1018.61 1019.21 1019.41 1019.65 1019.81 1019.61 1019.37 1019.29 1019.21 1019.37 1019.33 1019.33 1019.33 1019.21 1019.17
1020.77 1020.69 1020.53 1020.53 1020.57 1020.61 1020.45 1020.37 1020.41 1020.33 1020.37 1020.49 1020.33 1020.29 1020.25 1020.25 1020.13 1020.13 1020.09 1020.01 1019.93 1019.89 1019.89 1019.89 1019.77 1019.73 1019.65 1019.65 1019.65 1019.65 1019.57 1019.53 1019.49 1019.53 1019.41 1019.49 1019.37 1019.33 1019.21 1019.09 1019.01 1019.13 1018.85 1018.57 1018.61 1018.37 1018.53 1018.57 1018.93 1019.29 1019.29 1019.69 1020.21 1020.17 1019.93 1019.65 1019.53 1019.57 1019.49 1019.53 1019.41 1019.45
1020.69 1020.53 1020.41 1020.33 1020.33 1020.25 1020.33 1020.37 1020.37 1020.21 1020.29 1020.25 1020.45 1020.33 1020.33 1020.25 1020.17 1020.21 1020.21 1020.05 1019.93 1019.81 1019.81 1019.81 1019.73 1019.69 1019.73 1019.61 1019.61 1019.69 1019.65 1019.61 1019.53 1019.69 1019.73 1019.69 1019.69 1019.65 1019.45 1019.25 1019.13 1019.09 1019.13 1019.17 1019.05 1018.81 1018.45 1018.49 1018.61 1019.13 1019.93 1019.85 1020.13 1020.17 1020.57 1020.57 1020.33 1019.89 1019.61 1019.53 1019.57 1019.65
1020.65 1020.53 1020.49 1020.49 1020.33 1020.29 1020.33 1020.45 1020.29 1020.21 1020.17 1020.33 1020.33 1020.41 1020.37 1020.41 1020.33 1020.29 1020.17 1020.05 1019.93 1019.81 1019.69 1019.73 1019.65 1019.61 1019.65 1019.69 1019.65 1019.61 1019.57 1019.61 1019.57 1019.53 1019.69 1019.77 1019.77 1019.77 1019.69 1019.57 1019.37 1019.29 1019.37 1019.57 1019.41 1019.25 1018.77 1018.61 1018.69 1018.65 1018.93 1019.93 1020.37 1020.61 1020.53 1020.41 1020.29 1020.33 1019.77 1019.85 1019.77 1019.77
1020.65 1020.65 1020.53 1020.45 1020.49 1020.41 1020.49 1020.65 1020.77 1020.89 1020.97 1020.97 1021.01 1020.81 1020.81 1020.69 1020.41 1020.37 1020.25 1019.93 1019.81 1019.81 1019.73 1019.77 1019.69 1019.65 1019.61 1019.61 1019.65 1019.69 1019.57 1019.57 1019.57 1019.53 1019.57 1019.77 1019.81 1019.65 1019.61 1019.61 1019.61 1019.49 1019.41 1019.41 1019.53 1019.37 1019.29 1018.69 1018.65 1018.69 1018.73 1018.81 1018.85 1019.37 1020.25 1020.21 1020.25 1021.05 1020.17 1019.97 1019.97 1019.89
1020.65 1020.57 1020.49 1020.45 1020.37 1020.33 1020.53 1020.65 1020.77 1020.85 1020.89 1020.97 1021.09 1020.85 1020.57 1020.37 1020.25 1020.01 1019.89 1019.93 1019.85 1019.77 1019.77 1019.85 1019.73 1019.73 1019.65 1019.61 1019.65 1019.57 1019.61 1019.65 1019.65 1019.61 1019.53 1019.69 1019.77 1019.77 1019.77 1019.69 1019.61 1019.49 1019.49 1019.41 1019.37 1019.61 1019.57 1019.45 1018.77 1018.65 1018.73 1018.69 1018.65 1018.61 1018.81 1019.69 1020.49 1020.65 1021.01 1020.45 1020.13 1020.25
1020.57 1020.53 1020.41 1020.29 1020.25 1020.33 1020.49 1020.61 1020.65 1020.65 1020.69 1020.77 1020.81 1020.69 1020.33 1020.13 1019.97 1019.85 1019.85 1019.85 1019.77 1019.77 1019.77 1019.81 1019.81 1019.81 1019.65 1019.65 1019.61 1019.65 1019.57 1019.57 1019.61 1019.57 1019.57 1019.73 1019.73 1019.73 1019.69 1019.61 1019.57 1019.53 1019.41 1019.41 1019.41 1019.53 1019.57 1019.37 1019.45 1019.09 1018.85 1018.89 1018.77 1018.73 1018.89 1018.93 1019.17 1019.61 1020.21 1020.93 1020.81 1020.33
1020.57 1020.49 1020.45 1020.41 1020.21 1020.29 1020.33 1020.41 1020.53 1020.61 1020.61 1020.37 1020.41 1020.21 1020.09 1019.93 1019.85 1019.77 1019.81 1019.77 1019.81 1019.73 1019.65 1019.69 1019.73 1019.73 1019.69 1019.65 1019.65 1019.69 1019.61 1019.57 1019.61 1019.53 1019.49 1019.57 1019.61 1019.61 1019.65 1019.57 1019.57 1019.45 1019.41 1019.41 1019.33 1019.37 1019.41 1019.33 1019.29 1019.29 1019.21 1019.09 1019.01 1019.13 1019.17 1019.21 1019.33 1019.41 1020.01 1020.61 1020.89 1020.77
1020.61 1020.53 1020.41 1020.33 1020.25 1020.17 1020.17 1020.21 1020.37 1020.45 1020.53 1020.29 1020.13 1019.93 1019.89 1019.89 1019.73 1019.65 1019.65 1019.61 1019.61 1019.61 1019.57 1019.57 1019.65 1019.65 1019.65 1019.57 1019.65 1019.69 1019.65 1019.61 1019.57 1019.45 1019.41 1019.45 1019.37 1019.33 1019.37 1019.49 1019.49 1019.41 1019.41 1019.37 1019.29 1019.21 1019.29 1019.33 1019.21 1019.13 1019.13 1019.13 1019.25 1019.37 1019.45 1019.57 1019.57 1019.65 1019.81 1019.97 1020.45 1020.73
1020.65 1020.49 1020.37 1020.25 1020.21 1020.13 1020.05 1020.05 1020.13 1020.17 1020.25 1020.21 1019.97 1019.89 1019.85 1019.69 1019.53 1019.49 1019.45 1019.37 1019.37 1019.37 1019.41 1019.49 1019.53 1019.57 1019.49 1019.49 1019.57 1019.65 1019.61 1019.57 1019.53 1019.41 1019.37 1019.37 1019.25 1019.17 1019.17 1019.25 1019.29 1019.17 1019.25 1019.33 1019.25 1019.17 1019.17 1019.17 1019.13 1019.01 1019.05 1019.09 1019.13 1019.25 1019.33 1019.49 1019.45 1019.53 1019.69 1020.09 1020.45 1020.65
1020.61 1020.45 1020.29 1020.17 1020.13 1020.05 1020.01 1019.97 1019.97 1020.01 1020.05 1019.97 1019.89 1019.77 1019.73 1019.61 1019.33 1019.25 1019.17 1019.17 1019.09 1019.21 1019.21 1019.29 1019.41 1019.45 1019.41 1019.41 1019.45 1019.57 1019.57 1019.61 1019.57 1019.53 1019.45 1019.37 1019.29 1019.09 1019.09 1019.05 1019.09 1019.09 1019.17 1019.25 1019.13 1019.13 1019.17 1019.21 1019.09 1019.05 1019.05 1019.01 1018.97 1019.05 1019.13 1019.09 1019.17 1019.29 1019.49 1019.81 1019.97 1020.53
1020.73 1020.45 1020.37 1020.25 1020.21 1020.05 1020.01 1019.97 1019.97 1019.97 1020.05 1019.93 1019.93 1019.81 1019.73 1019.73 1019.49 1019.37 1019.21 1019.17 1019.09 1019.09 1019.09 1019.25 1019.29 1019.37 1019.33 1019.29 1019.37 1019.41 1019.45 1019.49 1019.53 1019.53 1019.45 1019.41 1019.29 1019.21 1019.09 1018.97 1019.01 1019.01 1019.05 1019.17 1019.13 1019.17 1019.13 1019.17 1019.21 1019.13 1019.09 1018.97 1018.97 1019.05 1019.01 1019.01 1019.05 1019.25 1019.53 1019.81 1020.01 1020.53
1020.69 1020.49 1020.41 1020.29 1020.13 1020.09 1019.97 1019.93 1020.41 1021.33 1021.41 1020.85 1020.21 1019.81 1019.65 1019.65 1019.57 1019.57 1019.49 1019.45 1019.37 1019.21 1019.01 1018.89 1018.97 1019.09 1019.05 1019.05 1019.21 1019.21 1019.25 1019.37 1019.41 1019.45 1019.45 1019.33 1019.33 1019.25 1019.13 1019.05 1019.01 1019.01 1019.01 1019.09 1019.13 1019.21 1019.21 1019.13 1019.05 1019.01 1019.17 1019.01 1018.85 1018.97 1019.01 1018.97 1019.09 1019.21 1019.45 1019.77 1020.09 1020.09
1020.73 1020.49 1020.37 1020.21 1020.05 1019.89 1019.73 1020.33 1021.17 1020.45 1019.97 1019.73 1020.01 1019.93 1019.49 1019.25 1019.17 1019.17 1019.21 1019.25 1019.09 1018.97 1019.01 1018.77 1018.73 1018.77 1018.81 1018.93 1019.01 1019.01 1019.09 1019.17 1019.25 1019.29 1019.29 1019.45 1019.45 1019.37 1019.29 1019.21 1019.13 1019.05 1019.01 1018.97 1019.09 1019.09 1019.17 1018.97 1019.05 1018.97 1018.97 1018.97 1018.85 1018.93 1019.05 1018.97 1019.01 1019.13 1019.25 1019.29 1019.49 1019.85
1020.81 1020.61 1020.45 1020.29 1020.05 1019.85 1019.69 1020.13 1020.33 1020.53 1020.69 1020.33 1020.13 1019.81 1019.53 1019.41 1019.25 1019.17 1019.13 1019.01 1018.85 1018.73 1018.69 1018.85 1019.01 1018.97 1018.81 1018.77 1018.85 1018.93 1018.97 1019.01 1019.09 1019.21 1019.25 1019.33 1019.37 1019.45 1019.45 1019.33 1019.25 1019.05 1019.05 1018.97 1018.97 1018.97 1019.05 1019.01 1018.89 1018.93 1018.93 1018.97 1018.93 1018.89 1018.97 1018.93 1018.93 1019.05 1019.21 1019.25 1019.33 1019.53
1020.89 1020.81 1020.77 1020.33 1020.09 1019.89 1019.69 1020.01 1020.89 1021.49 1021.17 1020.53 1020.25 1020.05 1020.13 1020.17 1019.57 1019.09 1018.93 1018.77 1018.69 1018.65 1018.77 1019.09 1019.37 1019.81 1019.45 1018.81 1018.57 1018.65 1018.73 1018.85 1018.97 1019.13 1019.17 1019.17 1019.29 1019.37 1019.37 1019.33 1019.29 1019.17 1019.01 1019.13 1019.05 1018.97 1018.93 1019.05 1018.89 1018.89 1018.85 1018.93 1018.93 1018.89 1018.97 1018.97 1018.93 1019.05 1019.17 1019.29 1019.37 1019.45
Wind_Speed
2 2 2 1 2 2 2 6 4 4 4 3 3 2 1 2 2 4 2 3 1 1 1 2 1 2 1 1 3 3 4 3 3 3 4 4 4 4 4 4 5 6 7 7 6 7 7 8 9 10 11 10 9 6 6 5 6 5 3 1 4 4
2 2 2 2 2 2 3 4 3 1 1 3 6 2 2 0 1 1 4 2 1 1 1 2 2 4 1 1 2 4 5 5 5 5 5 5 5 5 5 6 6 7 7 7 7 2 3 5 7 7 8 10 6 5 3 1 2 1 2 1 2 6
2 2 3 3 2 2 2 2 2 1 1 3 4 2 2 0 0 2 3 3 2 2 2 2 3 3 2 4 2 5 5 5 6 6 5 5 6 6 6 7 8 8 8 8 4 2 3 3 2 4 6 5 6 3 2 1 0 2 2 1 1 6
1 2 2 2 2 3 3 2 1 2 2 3 4 4 3 2 2 3 3 2 1 1 0 2 4 7 6 3 4 6 5 5 6 5 6 4 5 5 7 8 8 9 6 3 3 3 3 3 0 1 2 3 3 2 1 1 2 1 4 2 3 9
2 2 2 2 2 3 3 2 2 2 2 2 3 3 3 3 2 2 3 2 2 2 2 2 2 1 1 1 2 2 3 4 3 3 5 2 1 1 3 3 2 3 3 3 2 2 2 2 1 1 2 2 2 1 2 1 2 2 2 2 3 7
1 2 1 1 3 3 3 3 3 3 2 2 2 3 2 2 2 2 3 4 3 3 3 2 3 3 2 1 1 2 2 2 3 2 3 3 1 0 1 3 4 4 4 2 2 2 2 2 2 2 2 3 3 2 3 4 3 3 2 2 3 9
0 0 1 4 3 3 3 3 3 3 2 4 3 3 2 1 1 2 2 2 3 3 4 2 3 3 3 1 2 1 2 2 3 2 2 3 2 2 2 4 4 4 4 4 4 2 2 2 1 1 3 3 2 2 3 4 1 1 2 2 2 7
0 1 2 2 3 4 3 4 4 3 3 4 3 4 4 3 3 3 2 2 2 3 5 6 5 5 6 5 3 2 2 1 2 2 2 2 2 4 4 3 3 3 4 3 4 3 2 2 1 2 2 3 1 1 2 3 0 1 0 0 1 5
0 1 1 2 3 3 2 3 4 4 4 5 4 4 4 4 4 3 3 1 2 3 5 5 5 5 6 6 4 2 2 2 1 2 2 2 2 4 4 4 4 4 3 3 2 3 3 2 1 1 3 2 2 1 2 3 3 2 2 1 1 3
1 1 0 1 1 1 2 1 3 3 4 4 5 5 4 5 5 4 5 4 3 2 2 3 4 5 5 6 5 5 2 1 1 2 2 5 3 3 5 4 4 4 3 3 3 2 1 1 2 0 1 3 2 2 1 0 1 3 4 4 3 3
3 2 1 2 4 1 1 2 3 3 4 4 3 1 2 4 5 5 6 6 6 5 5 5 5 6 6 5 5 4 6 2 0 2 2 4 4 4 4 4 4 4 4 4 4 3 4 2 2 2 3 1 3 2 2 1 1 3 3 2 2 3
1 1 3 3 3 3 2 1 2 4 3 4 3 3 3 4 5 5 5 5 6 7 6 6 6 6 5 5 5 5 5 5 5 3 2 4 4 4 3 3 4 3 4 4 4 4 2 3 3 3 2 1 0 2 2 2 3 2 3 3 2 3
2 3 3 3 2 0 1 2 2 2 4 4 4 3 3 4 5 5 5 5 6 5 5 6 7 7 6 5 5 6 6 5 5 5 5 3 3 2 2 2 3 2 4 2 3 5 1 2 1 2 1 0 1 4 3 2 2 3 2 3 3 3
3 3 1 1 1 1 1 2 2 3 3 3 3 3 3 3 3 3 4 4 5 5 5 6 6 7 6 6 6 6 6 6 6 5 4 5 5 5 6 4 4 5 5 4 4 5 3 3 1 1 2 2 4 3 3 3 2 3 4 4 3 3
2 2 1 2 1 1 1 1 2 3 3 3 3 3 5 3 2 2 3 5 5 5 5 5 6 6 5 5 6 6 7 5 6 5 6 5 5 5 4 3 4 7 6 4 2 3 2 3 3 3 1 5 5 4 4 4 4 4 4 4 4 4
2 1 1 1 1 2 2 2 1 3 4 3 3 5 5 4 3 2 2 5 5 5 5 5 5 5 5 5 6 6 6 5 6 5 5 5 6 7 6 6 5 4 7 6 5 6 5 5 1 1 5 5 5 4 4 4 4 3 3 4 4 4
1 0 1 2 2 2 3 3 4 4 4 4 4 5 3 1 1 1 5 6 5 4 5 4 5 5 5 5 5 6 5 5 5 5 6 6 6 5 5 6 6 5 3 3 5 4 5 4 3 4 5 5 5 4 4 4 2 3 3 4 5 4
0 1 2 3 3 4 5 5 4 4 3 4 3 3 4 3 3 3 5 4 4 4 4 4 4 4 5 4 4 4 5 6 5 6 5 5 6 6 6 5 6 6 5 5 6 4 4 4 4 5 5 6 5 5 6 5 4 4 4 4 5 3
4 4 4 5 4 5 5 4 3 3 4 4 5 4 2 4 3 3 3 3 4 4 4 4 4 4 4 5 5 5 5 5 5 5 5 4 6 6 6 6 6 7 6 5 5 4 5 5 6 5 5 6 6 6 5 6 5 5 5 4 5 5
3 3 3 4 3 4 3 3 4 5 4 3 4 4 3 3 3 3 2 3 4 4 4 3 4 4 4 4 4 5 5 5 6 5 6 6 6 6 6 7 7 5 6 5 6 4 6 7 7 7 6 6 6 6 7 5 5 5 5 6 4 3
4 3 3 4 3 2 2 5 3 3 2 2 0 2 3 2 2 1 2 3 3 4 4 4 1 3 5 4 4 4 5 5 5 5 5 5 4 5 5 4 5 3 5 6 6 4 3 6 8 5 4 5 6 6 6 6 5 5 5 3 3 6
4 4 3 3 3 2 1 2 3 4 1 1 1 2 2 1 1 1 2 2 3 3 3 4 3 2 3 3 4 5 4 4 5 5 3 4 5 5 6 6 5 6 3 3 4 3 1 2 2 4 5 2 5 5 6 6 6 6 4 5 4 5
5 4 3 2 1 3 2 2 2 2 3 1 0 1 2 1 0 1 3 2 3 3 3 4 3 1 2 3 3 3 4 3 3 4 5 6 5 6 4 5 5 4 6 4 3 3 3 0 3 2 2 4 0 2 3 4 4 4 4 3 3 5
5 4 4 3 3 3 2 1 0 3 1 2 0 1 1 1 2 2 2 3 2 2 2 3 3 3 3 2 2 3 3 4 3 3 2 4 4 4 4 5 6 6 3 4 5 4 4 4 3 6 2 1 1 1 3 2 1 2 2 3 4 4
4 4 3 3 3 1 2 2 4 3 3 2 1 3 3 2 2 1 1 2 2 3 1 3 3 3 1 3 3 3 2 2 3 2 2 2 3 2 2 2 4 5 5 2 5 2 3 3 3 0 4 3 2 1 2 3 2 2 3 3 3 4
3 3 3 1 1 1 3 2 3 3 3 2 3 4 2 3 3 1 2 2 3 2 1 1 2 3 4 3 4 3 2 3 3 3 3 1 0 2 3 4 3 3 4 3 1 5 4 4 2 3 2 1 4 4 5 5 2 0 1 2 1 2
2 2 2 1 0 2 2 2 0 0 0 1 1 4 3 3 4 4 1 1 2 2 1 1 1 1 4 3 3 3 3 2 2 4 2 2 3 2 1 1 1 3 2 2 3 4 4 4 6 1 3 2 1 1 6 6 2 3 2 1 2 2
1 1 2 1 0 1 1 1 2 3 1 2 3 5 4 4 4 2 2 2 1 1 0 0 0 1 3 3 3 3 3 3 3 3 3 3 3 1 1 1 1 0 1 2 2 2 3 3 2 3 2 3 3 4 4 2 4 5 4 5 0 2
2 2 2 3 1 1 1 1 2 2 3 3 3 5 5 3 4 2 2 1 1 2 1 1 1 2 2 3 2 2 2 3 3 2 3 3 2 3 3 3 2 3 3 3 3 1 1 3 3 2 2 2 3 3 2 2 3 2 3 4 2 2
1 2 2 1 0 1 0 0 0 1 3 5 3 3 1 3 4 2 2 3 3 2 2 2 1 1 2 2 3 2 2 2 2 2 1 2 2 3 3 3 1 1 2 3 3 2 1 3 2 2 1 0 1 1 2 1 1 2 2 1 5 5
4 3 1 1 1 3 3 1 2 2 3 4 5 3 3 4 4 4 4 4 3 4 2 4 1 1 2 2 2 2 1 1 1 0 1 2 2 3 3 3 1 3 3 3 3 3 3 2 2 3 3 1 3 4 4 3 4 3 3 2 4 3
5 4 4 3 2 4 4 4 3 4 4 4 4 4 4 5 6 5 5 5 4 2 3 1 2 2 2 1 1 2 1 0 0 0 0 0 1 2 2 3 3 3 2 3 2 2 1 3 2 2 2 1 1 2 1 3 3 4 6 5 7 6
5 5 5 4 5 5 5 5 4 4 4 4 3 3 2 4 4 4 3 4 3 5 4 1 3 3 3 1 1 2 1 0 0 1 1 1 1 2 3 3 2 2 3 2 2 1 1 3 3 2 0 1 2 0 1 1 2 4 2 5 7 6
6 5 5 5 5 5 5 5 4 10 10 8 4 1 1 1 2 2 2 3 5 6 5 5 4 5 5 3 3 3 2 1 1 1 1 2 1 1 2 3 2 2 2 1 1 0 1 1 1 3 1 1 2 1 1 0 2 5 5 7 6 8
6 6 5 6 6 6 7 6 5 4 6 5 4 5 4 3 2 2 2 2 3 4 6 5 5 4 4 4 4 4 3 3 3 3 2 0 0 1 1 1 1 0 0 0 1 2 2 2 3 3 2 1 2 2 1 1 4 5 5 7 8 7
6 7 6 7 7 7 8 4 7 1 5 6 6 6 6 3 2 2 2 2 4 4 4 3 2 1 4 5 4 4 3 3 3 2 2 2 3 2 1 1 1 1 1 0 0 2 0 1 2 1 1 1 1 2 1 2 3 5 4 4 5 6
6 5 6 7 7 7 7 4 7 7 4 9 9 9 5 6 8 5 4 4 3 3 1 7 4 5 6 4 4 4 4 3 3 3 3 4 4 4 3 2 1 1 1 0 1 1 1 1 0 1 2 1 2 2 1 1 0 3 4 3 3 4
Wind_Direction
25 18 13 16 41 51 98 85 63 81 86 98 52 32 62 40 20 346 342 294 321 37 2 321 336 319 347 164 221 203 194 201 215 233 236 242 256 264 279 293 303 301 301 308 314 319 327 329 331 331 332 332 342 29 25 29 14 350 8 80 147 166
4 355 346 355 24 22 24 65 47 0 322 328 310 5 336 319 22 305 301 307 348 342 29 318 313 322 326 292 304 212 212 208 214 233 245 259 268 279 290 293 290 288 290 296 300 328 334 320 322 324 349 7 24 37 50 28 44 17 42 288 162 190
9 356 11 13 4 356 40 33 26 351 307 313 312 333 314 313 267 291 302 336 10 335 347 330 300 261 235 241 239 244 239 230 227 230 244 259 272 279 285 285 283 284 285 288 304 326 292 280 303 345 13 23 55 94 194 127 254 157 168 301 167 206
18 359 26 6 358 358 30 7 341 330 318 285 298 303 304 323 341 336 337 328 331 311 291 284 312 331 356 0 338 336 291 247 252 250 251 258 274 283 291 296 291 290 294 299 290 281 279 277 243 68 30 57 112 174 94 18 298 9 360 294 262 201
15 16 28 349 358 358 10 346 323 328 315 314 301 304 330 345 328 318 301 299 299 313 287 270 271 285 294 318 323 314 329 328 312 304 292 298 278 321 347 318 309 302 277 266 264 266 262 288 337 57 57 81 153 98 102 205 230 244 167 294 281 224
34 9 4 337 17 348 28 341 341 327 327 300 296 292 312 333 325 313 305 310 314 314 303 300 299 288 270 248 247 257 287 303 313 308 330 339 353 7 289 291 291 287 272 244 228 232 257 284 319 47 64 89 121 178 196 230 207 194 208 198 267 244
26 331 359 24 20 14 357 335 315 296 329 312 296 298 269 230 244 260 254 279 304 306 300 300 312 317 312 274 275 263 263 264 271 292 300 286 287 287 263 277 284 287 295 296 282 266 253 252 208 151 133 116 132 191 218 238 185 136 165 218 252 277
333 359 0 20 27 21 7 354 336 337 322 287 323 313 322 323 313 297 290 299 290 292 303 330 336 333 326 326 319 285 258 234 232 259 252 276 281 278 281 287 294 291 285 283 290 294 281 268 206 169 127 108 195 220 245 269 89 59 50 342 331 277
340 11 358 22 36 44 343 336 321 322 325 319 314 304 298 311 315 303 285 264 262 296 320 323 337 336 334 344 334 304 290 295 303 278 281 273 242 263 260 257 265 269 277 293 298 294 293 294 85 96 122 147 197 255 316 324 20 357 18 16 319 288
186 215 214 118 62 1 2 317 293 302 285 310 311 305 307 313 303 305 331 4 12 25 328 2 0 353 6 355 356 358 346 289 263 300 305 291 259 242 265 289 285 287 294 298 288 262 212 169 62 3 181 167 180 187 179 43 24 39 22 12 357 350
30 40 79 87 114 140 93 261 267 272 289 308 320 348 330 313 310 330 348 357 7 360 2 12 10 4 4 12 8 1 33 44 311 254 233 260 286 268 266 265 277 282 285 269 264 241 199 152 134 207 235 183 198 146 117 86 54 48 77 359 353 21
2 1 83 81 93 116 187 253 284 309 314 321 333 335 339 337 332 337 350 13 7 0 6 6 11 6 9 16 16 8 21 31 13 360 214 237 258 260 262 278 274 273 263 259 278 265 195 150 155 203 227 243 312 64 83 85 62 55 60 44 33 49
359 41 73 96 109 178 251 269 283 299 313 333 348 344 340 333 330 335 348 8 12 3 10 12 5 11 12 19 16 23 13 11 10 7 6 343 334 305 281 303 307 283 284 284 284 281 133 123 146 256 201 183 49 53 45 71 82 76 62 87 99 81
37 27 36 6 5 4 307 283 275 290 296 320 330 343 320 346 326 331 337 11 11 4 10 13 22 13 17 13 13 21 16 2 358 12 19 18 16 359 7 358 340 349 336 334 324 298 129 119 90 300 285 27 60 68 79 61 70 70 70 84 90 83
56 30 6 344 336 291 285 281 290 295 303 335 328 343 338 329 297 327 335 17 11 5 8 11 21 30 14 18 17 20 15 354 357 12 18 10 18 9 17 349 350 3 345 344 338 350 106 125 132 216 332 46 45 48 58 70 49 66 77 91 96 88
44 33 321 289 260 256 264 261 290 318 310 307 333 332 2 343 355 0 337 25 12 9 13 13 15 22 25 24 24 21 7 360 2 10 16 11 19 15 355 0 5 18 2 352 8 15 54 104 153 37 29 44 48 55 64 61 62 59 88 98 89 99
102 272 284 309 309 307 319 335 337 315 301 320 333 334 326 7 339 1 32 26 15 14 9 15 16 19 29 19 22 17 5 7 7 14 11 7 19 7 16 1 351 8 26 352 25 48 55 94 86 41 26 37 39 46 54 49 64 75 64 79 67 29
353 299 297 298 327 338 327 322 314 326 325 327 340 351 34 31 15 28 32 22 17 9 12 3 11 16 24 14 25 24 4 10 9 12 15 12 6 7 10 15 360 357 6 12 36 63 66 60 55 41 40 41 36 38 34 20 8 31 44 52 101 138
349 339 342 347 334 328 318 308 306 348 349 354 27 40 59 57 24 45 36 7 9 354 355 357 4 13 27 17 11 10 13 1 13 14 16 10 12 12 9 7 13 354 359 25 56 63 73 68 59 60 51 40 47 42 40 34 13 14 25 27 60 73
328 329 335 327 327 312 321 332 330 334 353 20 9 50 41 59 44 39 13 19 4 354 342 350 343 11 29 33 16 359 356 8 6 21 18 10 2 9 12 7 4 2 4 22 54 64 93 85 64 49 51 42 37 39 46 36 34 40 23 14 16 350
289 316 310 299 303 308 327 323 339 343 315 324 279 75 42 353 40 8 2 359 355 348 347 336 18 15 30 24 23 7 358 359 4 22 29 12 2 13 12 16 355 3 16 23 50 44 59 98 105 66 31 41 36 33 41 43 39 33 39 17 18 40
293 293 276 248 254 321 225 230 244 254 246 268 79 64 54 6 1 358 11 333 325 5 16 14 13 26 30 43 32 13 359 352 358 9 33 25 26 25 19 17 10 360 9 33 37 66 289 81 32 138 128 58 44 35 35 23 23 28 38 21 35 83
270 266 267 247 248 264 261 303 247 210 155 121 75 214 160 255 357 6 328 333 337 360 21 41 9 339 36 2 43 20 350 342 15 1 39 24 24 26 15 21 17 19 340 356 17 10 30 109 159 111 92 97 99 39 21 15 10 13 11 75 58 53
260 272 276 297 285 267 229 300 261 113 87 107 152 38 22 348 16 9 344 325 328 18 2 47 39 44 20 342 37 22 349 349 6 38 24 64 32 23 21 19 16 16 20 11 1 334 8 14 105 127 144 167 184 107 117 54 14 333 355 40 74 93
265 275 306 311 302 9 43 15 9 7 32 28 13 13 23 346 330 321 306 330 314 355 359 38 44 53 46 17 11 27 32 9 23 74 59 75 78 61 23 11 25 33 28 24 350 337 334 16 48 113 145 101 62 33 210 148 129 345 356 21 44 72
279 299 285 276 261 78 66 65 40 33 3 10 345 339 313 261 278 270 224 243 297 357 344 8 69 52 28 25 14 20 29 47 36 27 71 41 99 69 46 45 11 42 20 10 77 0 350 337 5 12 68 157 171 170 158 174 94 197 347 39 348 45
271 275 248 226 62 63 43 48 76 165 178 222 262 273 246 254 226 244 230 274 274 322 0 22 6 76 53 39 35 27 57 35 23 40 51 66 45 21 1 59 19 55 355 6 40 15 349 318 332 2 26 350 335 130 147 138 158 114 92 349 10 80
344 316 288 300 24 82 32 326 307 281 237 243 216 248 253 249 240 226 194 225 236 266 270 227 240 60 66 75 57 35 42 71 50 41 79 67 69 28 332 27 65 178 50 41 34 34 324 349 27 293 12 8 17 83 92 78 139 152 141 150 16 47
12 354 331 327 284 25 67 326 278 264 280 254 233 248 252 246 227 208 199 282 233 231 214 187 198 127 114 105 91 77 86 85 74 54 85 82 83 85 66 61 18 7 25 1 8 12 64 342 3 310 357 356 29 45 41 51 115 87 136 135 114 142
326 325 319 336 335 285 85 106 350 261 251 277 271 286 270 262 261 271 225 252 248 243 194 198 176 119 112 99 87 90 101 102 129 123 101 115 111 82 74 51 336 86 28 20 346 4 349 309 334 328 20 173 71 33 44 46 108 97 59 44 156 169
302 290 293 288 286 282 281 270 259 255 260 270 276 260 272 268 260 262 238 243 244 236 191 200 151 177 143 112 101 103 101 81 125 126 121 127 137 125 97 94 22 62 41 8 359 341 356 327 338 15 15 104 182 176 178 183 193 180 147 132 108 124
312 311 302 284 284 272 270 275 263 250 254 257 251 263 260 253 251 239 227 232 242 248 250 210 133 164 122 117 124 102 130 89 346 16 42 214 205 139 121 99 63 61 37 330 359 38 30 316 341 18 2 344 247 213 189 183 192 169 163 168 146 146
296 292 291 296 291 280 272 266 260 274 292 290 307 304 298 291 281 267 268 262 258 237 225 215 205 170 207 178 124 128 88 75 317 270 228 247 187 156 125 104 103 78 67 35 309 24 324 273 301 319 280 293 269 288 253 261 139 148 120 123 135 134
289 293 293 298 288 282 271 269 3 22 354 331 308 316 358 346 324 304 306 299 289 268 241 215 192 193 198 192 183 178 180 193 214 267 232 225 127 198 136 128 116 77 66 264 314 79 287 305 312 279 251 265 282 278 277 205 146 138 144 135 152 155
292 294 297 289 287 282 272 63 40 186 201 221 237 270 246 210 206 231 246 280 278 264 253 241 199 201 179 171 185 178 179 173 187 197 202 145 169 130 83 76 98 113 256 172 101 105 333 62 26 326 331 208 233 266 254 194 155 175 169 168 161 165
279 287 298 303 296 292 293 117 221 75 325 312 306 286 282 283 274 260 262 251 275 274 251 275 331 179 190 171 172 194 185 184 190 204 106 140 149 117 114 90 57 77 333 58 30 71 47 324 48 15 341 314 195 244 264 231 178 172 186 177 167 160
294 306 323 303 296 300 303 14 47 54 305 298 295 292 324 318 291 274 248 242 241 259 36 78 95 298 279 219 180 185 192 197 209 185 167 160 144 166 156 119 117 59 301 290 227 105 137 281 194 47 46 339 234 267 301 320 149 158 165 150 166 164